Theta_e
342 347 353 353 353 353 353 353 352 352 352 352 351 350 349 348 347 345 344 344 344 344 342 345 349 346 345 344 345 343 340 341 343 345 345 346 347 345 343 344 345 340 343
338 347 353 352 352 352 352 352 352 351 351 351 351 351 350 349 349 346 346 345 345 345 346 345 345 347 349 348 346 344 343 342 340 342 344 343 343 344 342 343 344 340 342
332 337 342 347 346 347 347 348 349 350 351 350 350 350 350 349 349 349 349 349 347 346 346 346 348 349 348 348 348 347 346 344 344 343 342 338 338 343 341 341 344 346 345
330 332 335 341 341 340 340 339 339 339 340 343 347 349 349 349 349 349 350 349 349 349 348 349 348 347 346 346 347 348 348 347 346 345 340 338 336 341 345 340 342 344 343
323 327 331 334 333 332 332 332 333 333 333 333 334 336 339 342 346 349 349 348 348 348 347 348 348 349 349 348 347 345 348 349 346 343 337 336 336 342 347 345 339 339 343
317 321 328 330 329 330 329 329 329 329 330 329 329 330 330 331 332 335 342 345 347 347 348 347 348 348 348 347 348 348 348 348 346 339 336 336 337 341 348 347 344 339 339
314 317 320 327 327 328 327 327 327 327 327 327 327 326 326 327 327 327 330 336 341 343 345 346 347 347 347 347 347 347 348 346 342 338 337 335 334 343 346 348 346 343 342
312 313 314 324 326 326 326 326 327 326 325 327 326 326 326 328 328 329 328 332 334 335 335 333 335 340 345 346 347 346 346 343 340 338 337 337 339 344 345 345 348 345 343
312 312 312 313 317 321 323 325 326 327 326 327 326 326 326 326 326 326 327 327 326 326 328 329 330 332 334 338 342 345 343 341 337 337 338 336 339 345 346 346 349 346 345
311 311 311 311 312 311 311 323 324 325 325 325 325 325 323 320 323 323 324 326 329 329 328 330 331 332 335 336 337 339 338 338 335 336 337 337 342 346 346 345 345 346 345
311 309 310 310 311 310 313 316 316 320 320 320 318 321 315 311 313 315 321 325 326 326 327 327 327 325 324 324 326 330 329 331 332 334 335 339 343 345 345 345 345 345 345
306 308 308 309 310 310 314 311 310 312 310 311 311 311 311 311 313 315 316 320 321 321 321 323 323 321 316 311 311 316 313 315 324 330 334 339 341 343 343 344 344 344 344
306 308 309 308 309 308 309 309 308 308 309 310 310 311 310 311 309 309 309 310 310 314 311 313 312 312 309 309 310 309 310 310 311 316 323 329 328 330 337 341 343 343 343
306 307 308 307 308 307 308 308 307 308 309 309 310 310 308 307 307 307 307 308 308 309 308 309 309 310 310 310 309 310 310 309 309 309 312 322 325 327 328 330 333 339 343
306 306 306 306 306 308 307 306 306 307 308 308 308 309 307 305 304 305 306 307 307 308 308 307 308 309 309 310 311 310 310 310 309 310 309 318 323 325 326 327 329 330 332
306 305 306 306 306 307 306 305 305 309 308 306 306 307 305 304 303 304 306 307 306 307 307 307 307 307 307 308 308 309 309 310 310 310 311 311 321 323 323 326 328 329 330
305 305 304 305 306 305 306 306 306 310 308 306 306 304 304 304 303 303 305 305 306 306 307 307 306 306 305 306 305 307 308 309 309 311 312 312 313 318 321 324 325 327 329
303 303 304 307 304 303 303 305 306 308 306 306 304 302 303 303 302 302 302 302 305 305 305 304 303 302 302 303 302 303 305 308 308 310 310 311 312 312 313 317 319 321 324
303 303 303 304 303 303 303 305 306 307 304 303 302 301 301 300 299 298 297 299 301 302 302 302 301 300 299 299 301 303 305 304 307 308 309 312 310 309 308 311 312 314 317
302 302 302 303 303 302 303 305 306 306 303 302 301 299 298 296 296 295 295 295 296 297 297 297 299 298 298 298 300 302 302 304 305 305 309 310 309 309 308 305 306 307 313
302 302 302 302 302 301 302 302 303 303 303 301 300 299 297 296 295 293 293 293 293 293 292 293 296 296 296 297 297 297 300 303 301 303 307 306 305 305 305 303 302 303 305
302 302 302 302 302 301 302 302 303 303 303 301 300 297 297 295 295 293 291 291 292 291 291 291 292 292 295 296 294 295 294 296 299 302 304 302 303 303 303 304 301 299 299
301 301 302 302 302 301 302 302 302 303 303 301 297 296 296 295 295 293 291 291 291 291 290 290 291 291 291 294 295 294 290 290 294 300 300 299 299 305 302 302 300 298 296
301 301 301 302 302 302 301 300 299 299 299 300 297 296 295 294 293 293 292 291 290 291 290 290 292 290 291 290 293 297 295 295 292 291 295 298 296 302 299 299 299 298 295
302 301 300 301 302 302 300 299 298 297 298 297 296 294 293 293 293 293 292 290 289 290 290 289 289 289 290 290 291 291 292 291 294 288 287 290 293 297 298 298 298 296 294
300 301 300 300 301 301 300 298 297 296 296 296 295 293 293 292 292 292 292 290 289 289 289 290 290 289 288 288 290 291 290 288 288 287 286 287 288 291 294 298 293 292 292
Wind_Speed
5 4 9 11 11 11 10 9 9 8 8 6 4 3 3 3 3 3 3 3 3 4 4 5 5 3 4 4 3 3 3 3 3 4 4 4 2 2 2 2 3 4 5
5 7 11 11 11 11 11 10 9 9 8 8 7 6 3 3 2 2 3 3 3 4 4 5 6 6 7 5 3 2 3 2 2 2 3 3 3 3 1 1 4 3 4
8 8 7 11 11 11 11 11 10 10 10 9 8 7 6 5 5 4 5 4 4 4 5 6 6 6 7 7 5 4 4 3 3 3 5 3 4 7 6 4 1 3 3
9 6 5 10 10 11 11 10 10 10 10 10 11 11 10 9 8 8 9 6 6 6 6 7 7 6 7 7 7 7 7 6 4 4 3 4 5 9 10 7 6 5 4
7 5 5 9 10 10 10 10 10 10 10 10 10 10 10 10 11 11 10 9 7 6 7 8 8 8 7 7 8 9 10 8 5 5 4 4 4 8 13 10 8 8 7
6 5 6 8 8 9 10 10 10 10 10 9 9 9 10 10 11 11 10 10 9 9 8 8 9 10 9 7 8 9 10 9 6 5 5 5 5 10 10 11 10 8 8
6 4 5 7 8 8 9 10 10 9 10 10 9 9 10 11 12 11 10 10 9 9 9 10 11 12 11 8 9 10 9 8 5 5 5 5 5 12 11 11 13 11 10
7 6 6 10 8 8 8 11 10 8 9 9 9 10 10 13 13 11 8 9 8 9 10 11 12 12 13 13 12 11 10 8 5 5 5 5 9 14 14 14 13 13 12
6 7 5 6 7 9 7 10 11 11 9 11 10 10 10 12 13 14 12 10 11 12 11 12 12 12 13 13 13 12 11 11 5 4 6 4 10 17 16 14 13 15 14
6 6 5 5 6 6 5 11 11 11 11 11 11 11 11 11 13 13 12 12 15 12 10 12 13 16 14 13 14 13 13 12 6 6 5 6 15 20 20 16 14 18 16
3 4 4 5 5 6 4 6 9 10 12 11 10 12 8 5 6 8 12 15 16 16 15 15 14 15 14 12 12 12 11 4 5 3 3 11 16 19 18 17 16 16 18
3 2 2 3 4 5 3 5 5 5 5 5 5 6 5 6 5 7 8 13 14 15 14 15 14 13 10 4 4 8 4 6 4 4 3 13 19 19 17 17 16 17 18
4 2 2 3 3 4 4 3 3 3 3 3 6 5 5 5 4 4 4 4 5 9 5 8 7 6 7 5 5 4 4 4 3 3 6 12 15 16 17 16 13 15 18
4 4 3 3 3 3 2 2 2 3 2 3 4 6 4 3 4 4 4 4 4 4 5 5 4 5 6 6 6 6 6 4 3 3 4 10 13 15 15 15 15 16 15
5 5 3 2 2 2 2 2 3 2 3 3 4 5 4 4 4 4 4 4 4 4 4 4 4 5 6 6 5 6 6 6 6 3 3 9 10 12 15 16 16 16 17
7 6 4 3 2 2 1 3 2 1 2 3 4 4 5 4 4 4 4 4 4 4 4 4 4 4 4 5 6 7 7 6 6 6 5 5 11 12 14 14 15 16 16
5 6 5 4 2 3 3 3 2 1 3 3 3 4 5 5 5 5 4 4 4 4 5 4 4 4 4 5 5 6 5 6 6 6 5 5 6 11 17 19 18 18 19
7 7 5 3 3 3 3 3 2 0 2 2 2 2 4 5 5 5 4 4 4 4 3 3 4 4 4 4 6 5 4 5 6 6 5 5 6 7 10 20 21 20 19
7 7 5 3 2 1 2 2 2 3 2 1 1 2 4 5 5 4 3 4 4 4 4 3 3 3 3 6 6 5 4 4 4 5 6 7 8 7 7 14 19 19 20
6 6 4 2 2 1 2 2 2 2 1 1 0 1 3 3 4 4 3 4 4 3 4 4 3 3 2 5 6 6 4 3 3 4 5 6 5 6 7 8 7 9 18
5 5 4 3 2 1 1 1 1 1 1 2 2 1 2 2 2 3 2 3 4 4 3 5 3 5 3 6 4 4 3 1 5 4 4 4 6 6 7 7 6 6 8
5 4 3 4 3 2 2 2 2 2 3 2 2 2 2 2 1 2 3 3 4 3 4 4 4 3 3 4 3 2 4 4 4 2 3 5 4 3 5 6 7 9 8
4 4 6 6 6 4 4 1 1 1 1 1 2 3 3 3 2 2 1 1 2 2 2 2 3 3 2 3 5 2 3 3 4 3 3 4 6 4 4 5 7 7 8
6 4 6 6 6 6 5 3 3 3 3 3 3 3 3 3 2 1 0 1 1 2 3 2 2 0 1 1 3 3 2 2 3 5 3 3 6 3 4 4 5 6 7
5 6 6 6 7 6 6 5 4 4 4 3 2 4 3 3 4 4 3 2 2 1 2 2 2 2 0 1 1 2 2 2 1 2 5 4 4 2 1 3 4 4 5
5 6 6 7 8 7 7 7 8 8 6 4 4 4 4 3 3 4 5 3 3 3 2 2 2 3 2 1 1 2 2 2 2 2 3 4 5 4 1 2 4 4 4
Wind_Direction
12 47 82 77 75 75 71 67 63 56 47 43 34 25 44 32 20 24 24 20 5 355 351 346 7 347 351 355 9 24 39 42 23 22 29 40 70 86 94 38 257 161 142
94 60 65 75 76 74 69 63 60 53 42 36 31 32 22 348 336 321 328 333 333 335 334 338 342 345 355 339 340 342 340 350 341 329 323 330 325 291 211 56 99 161 144
79 54 54 68 70 69 66 59 51 46 39 32 23 16 5 354 348 319 288 291 298 315 323 328 331 333 339 334 320 298 300 295 291 294 284 278 275 272 246 205 177 157 159
87 64 58 72 70 66 63 58 53 47 40 31 22 16 11 358 342 337 331 328 337 325 318 319 318 317 317 319 318 297 284 277 249 268 283 276 271 267 253 222 209 204 209
84 78 73 70 66 60 52 44 39 34 30 25 19 15 9 3 358 356 354 351 340 328 315 312 310 306 297 301 305 301 291 273 258 262 263 265 270 272 265 222 220 216 219
100 93 83 74 66 60 49 36 28 24 18 12 7 4 0 354 348 346 346 346 346 337 320 310 306 299 301 300 301 299 303 284 279 275 271 270 269 278 283 221 210 219 227
109 91 62 64 65 54 46 31 23 16 11 9 5 2 359 354 345 336 335 340 342 341 337 334 328 325 325 315 302 297 290 291 272 269 268 271 271 281 298 246 215 217 220
105 71 53 46 55 34 34 18 14 9 6 2 1 359 357 357 353 340 336 342 338 332 332 328 324 322 320 315 305 303 300 286 275 265 266 270 272 280 280 279 230 227 227
83 76 52 40 33 26 23 12 16 16 11 18 15 9 3 8 7 13 16 356 336 323 325 326 325 325 319 316 318 315 307 291 269 256 264 263 270 277 270 270 245 236 233
77 72 56 35 28 17 10 12 17 16 18 25 23 25 26 21 15 16 15 5 9 358 337 336 341 342 331 327 331 322 312 304 271 252 247 251 264 273 282 283 284 244 243
68 68 60 36 25 12 10 8 11 9 13 18 18 20 22 12 7 15 13 22 30 29 32 28 22 17 19 10 2 358 355 329 301 278 264 257 260 273 280 277 266 258 246
150 97 80 55 35 15 5 8 6 8 17 18 28 23 26 24 14 20 13 22 22 25 19 17 12 10 9 355 347 359 355 347 350 328 300 291 301 300 294 282 278 269 257
162 136 94 63 46 25 9 1 3 9 19 32 33 19 22 18 9 11 4 11 4 16 11 8 6 6 356 353 349 347 347 349 339 326 325 335 347 351 340 327 278 270 269
158 150 109 76 43 18 6 2 348 25 39 29 18 20 23 15 9 4 13 12 17 5 8 4 355 346 354 352 350 345 342 332 320 310 316 328 340 344 345 346 347 336 275
158 159 146 119 58 11 9 354 5 27 52 20 20 20 23 22 9 1 10 18 17 4 11 360 356 355 348 346 341 342 334 329 328 317 305 306 325 333 333 334 330 326 327
173 167 159 118 82 51 14 2 4 73 49 51 36 15 22 29 12 16 16 14 17 10 357 0 360 350 340 336 336 331 322 328 331 328 319 316 318 331 344 345 342 333 325
167 146 150 142 99 52 6 349 39 112 60 57 35 24 31 32 22 20 16 11 5 2 0 3 358 346 344 342 328 323 321 326 329 324 330 340 352 11 18 9 360 348 339
145 150 143 114 101 36 4 344 13 117 80 86 70 38 36 33 31 30 24 12 354 0 2 2 358 344 345 337 324 310 320 332 328 336 357 24 27 22 16 13 9 7 1
156 152 158 130 142 19 346 343 22 111 105 150 114 62 38 36 35 47 29 5 8 14 13 352 358 357 342 344 322 314 326 330 337 6 26 38 31 28 14 8 10 9 5
151 154 142 151 152 15 360 11 54 107 118 214 103 70 62 50 50 48 30 14 14 22 10 360 356 340 337 327 316 317 319 314 352 28 60 47 32 32 31 16 3 357 4
158 144 157 157 211 104 28 22 50 227 220 254 246 181 135 118 81 64 36 16 11 28 9 12 346 342 334 343 337 333 329 258 30 28 40 52 32 30 31 30 18 6 360
165 179 177 210 208 207 180 215 205 207 234 227 223 233 199 151 69 72 36 11 9 15 15 17 30 345 326 7 356 280 350 329 3 12 52 43 35 31 18 26 21 14 8
203 212 211 221 214 224 205 224 295 328 328 308 264 256 244 205 176 135 119 63 351 10 14 9 25 41 347 323 14 74 348 311 333 310 30 39 21 36 13 16 22 17 6
242 234 234 227 217 225 205 208 210 216 227 236 227 233 247 232 223 217 285 346 342 356 0 333 34 89 113 339 332 8 309 311 328 318 337 356 11 10 27 13 13 13 6
251 237 232 229 233 230 212 212 213 237 238 260 266 272 272 267 236 229 220 226 259 247 270 295 331 338 210 183 203 342 335 347 334 326 304 324 334 339 29 34 11 7 359
250 241 233 233 241 229 215 216 217 229 243 247 249 256 260 260 257 243 233 231 240 240 249 271 297 310 290 242 207 206 198 211 221 239 288 308 287 295 269 74 25 350 347